Glennallen, AK

7:24 PM AKST on February 22, 2017 (GMT -0900)
Gulkana

Weather History for PAGK - January, 2013

Change the Weather History Date:

Sunday, January 13, 2013

  Actual Average Record
Temperature  
Mean Temperature 23 °F -  
Max Temperature 39 °F -1 °F 43 °F (1984)
Min Temperature 7 °F -18 °F -55 °F (1972)
Degree Days  
Heating Degree Days 42    
Moisture  
Dew Point 31 °F    
Average Humidity 79    
Maximum Humidity 89    
Minimum Humidity 67    
Precipitation  
Precipitation 0.00 in - - ()
Snow  
Snow 0.00 in - - ()
Snow Depth 9.00 in    
Sea Level Pressure  
Sea Level Pressure 29.84 in    
Wind  
Wind Speed 23 mph (SSE)    
Max Wind Speed 26 mph    
Max Gust Speed 37 mph    
Visibility 10 miles    
Events      
Averages and records for this station are not official NWS values.
T = Trace of Precipitation, MM = Missing Value Source: NWS Daily Summary

Daily Weather History Graph

Daily Weather History Graph

Search for Another Location

Airport or City:

Trip Planner

Search our weather history database for the weather conditions in past years. The results will help you decide how hot, cold, wet, or windy it might be!

Date:

Astronomy

Jan. 13, 2013 Rise Set
Actual Time 9:50 AM AKST 3:51 PM AKST
Civil Twilight 8:50 AM AKST 4:51 PM AKST
Nautical Twilight 7:51 AM AKST 5:50 PM AKST
Astronomical Twilight 6:57 AM AKST 6:44 PM AKST
Moon 9:51 AM AKST (1/13) 7:51 PM AKST (1/13)
Length of Visible Light 8h 00m
Length of Day
6h 01m
Waxing Crescent, 6% of the Moon is Illuminated
Jan 13
Waxing Crescent
Jan 18
First Quarter
Jan 26
Full
Feb 3
Last Quarter
Feb 9
New

Hourly Weather History & Observations

Time (AKST) Temp. Windchill Dew Point Humidity Pressure Visibility Wind Dir Wind Speed Gust Speed Precip Events Conditions
12:53 AM 36.0 °F 23.9 °F 28.0 °F 73% 30.00 in 10.0 mi SSE 25.3 mph 34.5 mph N/A   Scattered Clouds
1:53 AM 35.1 °F 22.7 °F 28.0 °F 76% 29.98 in 10.0 mi SSE 25.3 mph 35.7 mph N/A   Partly Cloudy
3:53 AM 34.0 °F 21.5 °F 28.0 °F 79% 29.96 in 10.0 mi South 24.2 mph 33.4 mph N/A   Scattered Clouds
4:53 AM 35.1 °F 22.5 °F 28.0 °F 76% 29.94 in 10.0 mi SSE 26.5 mph 35.7 mph N/A   Scattered Clouds
5:53 AM 36.0 °F 23.9 °F 28.9 °F 76% 29.92 in 10.0 mi SSE 25.3 mph 35.7 mph N/A   Mostly Cloudy
6:53 AM 36.0 °F 23.9 °F 28.9 °F 76% 29.91 in 10.0 mi SSE 25.3 mph 36.8 mph N/A   Mostly Cloudy
7:53 AM 36.0 °F 23.9 °F 30.0 °F 79% 29.93 in 10.0 mi South 25.3 mph 35.7 mph N/A   Mostly Cloudy
8:53 AM 37.0 °F 25.6 °F 30.0 °F 76% 29.92 in 10.0 mi SSE 24.2 mph 31.1 mph N/A   Overcast
9:53 AM 37.9 °F 28.2 °F 30.0 °F 73% 29.94 in 10.0 mi SSE 18.4 mph - N/A   Overcast
10:53 AM 37.9 °F 27.6 °F 30.0 °F 73% 29.93 in 10.0 mi SSE 20.7 mph - N/A   Overcast
11:53 AM 37.9 °F 28.9 °F 30.9 °F 76% 29.91 in 10.0 mi SSE 16.1 mph - N/A   Overcast
12:53 PM 37.0 °F 27.4 °F 32.0 °F 82% 29.88 in 10.0 mi SSE 17.3 mph 24.2 mph N/A   Overcast
1:53 PM 37.0 °F 27.0 °F 32.0 °F 82% 29.87 in 10.0 mi SSE 18.4 mph 24.2 mph N/A   Mostly Cloudy
2:53 PM 37.0 °F 27.4 °F 30.9 °F 79% 29.84 in 10.0 mi SSE 17.3 mph - 0.00 in   Overcast
3:53 PM 37.0 °F 27.4 °F 32.0 °F 82% 29.81 in 10.0 mi South 17.3 mph 21.9 mph N/A   Overcast
4:53 PM 37.0 °F 27.0 °F 32.0 °F 82% 29.78 in 10.0 mi SSE 18.4 mph 28.8 mph N/A   Mostly Cloudy
5:53 PM 37.0 °F 25.9 °F 32.0 °F 82% 29.74 in 10.0 mi South 23.0 mph 32.2 mph N/A   Overcast
6:53 PM 37.0 °F 25.1 °F 33.1 °F 86% 29.73 in 10.0 mi SSE 26.5 mph 34.5 mph N/A   Overcast
7:53 PM 37.0 °F 25.6 °F 33.1 °F 86% 29.73 in 10.0 mi South 24.2 mph 28.8 mph N/A   Overcast
8:53 PM 37.0 °F 25.9 °F 33.1 °F 86% 29.71 in 10.0 mi South 23.0 mph 31.1 mph N/A   Overcast
9:27 PM 37.0 °F 25.9 °F 34.0 °F 89% 29.65 in 10.0 mi SSE 23.0 mph 28.8 mph N/A   Overcast
9:53 PM 37.9 °F 26.6 °F 34.0 °F 86% 29.70 in 10.0 mi South 25.3 mph 32.2 mph N/A   Clear
10:53 PM 37.9 °F 26.6 °F 33.1 °F 83% 29.69 in 10.0 mi SSE 25.3 mph 33.4 mph N/A   Clear
11:53 PM 37.9 °F 26.6 °F 33.1 °F 83% 29.70 in 10.0 mi SSE 25.3 mph 35.7 mph N/A   Overcast